Weather in Srednyaya Muya

Russia / Irkutsk Oblast     54°20′04″N   103°31′14″E
temp.,
°C
wind,
m/s
gust,
m/s
humid.,
%
clouds,
%
prec.,
mm/h
press.,
hPa
HPBL,
m
11 august, thu
thu1123:00+12s118752 0.0 101010
02:00+10sse119253 0.0 101010
05:00+10wsw119693 0.2 101010
08:00+13s129037 0.5 1010191
11:00+17wnw3579100 0.9 1009862
14:00+17wnw358052 6.4 1010989
17:00+18nw467414 1.8 1009983
20:00+15wnw11905 2.9 101011
12 august, fri
fri1223:00+12wnw11955 0.0 101110
02:00+10wnw00965 0.0 101210
05:00+10sse00970 0.0 101210
08:00+13se00916 0.0 1011158
11:00+20w116061 0.0 1010955
14:00+22wnw224644 0.1 10081861
17:00+22n324512 0.0 10071656
20:00+17ene117387 0.0 100711
13 august, sat
sat1323:00+14e118271 0.0 100910
02:00+12ese119149 0.0 100910
05:00+11e1193100 0.0 100810
08:00+15n0176100 0.0 1008121
11:00+21nw12548 0.0 1007876
14:00+21nnw336213 1.2 10061214
17:00+20n346258 0.7 1005981
20:00+16n22805 1.0 100642
14 august, sun
sun1423:00+11n22870 0.0 100814
02:00+8n11910 0.0 100912
05:00+7nne11945 0.0 100911
08:00+12ne11721 0.0 1009202
11:00+19nw024322 0.0 10081156
14:00+22w123885 0.0 10061616
17:00+22ssw113937 0.0 10051641
20:00+17ese1163100 0.0 100411
15 august, mon
mon1523:00+13e2287100 0.6 100624
02:00+13ene1186100 0.6 100410
05:00+12ne118799 0.0 100410
08:00+14wnw2287100 0.4 1004127
11:00+13ne1397100 1.9 1004152
14:00+14n239699 2.2 1004205
17:00+16n467699 0.1 1005796
20:00+13nnw249024 0.1 1004137